sat.trackr.live / text

‹ back to catalog

IRIDIUM 166

NORAD 43570 · 2018-061B

PAYLOAD ACTIVE UNKNOWN

§ Identity

Operator
Country
US
Launch date
2018-07-25
Launch site
AFWTR
Launch vehicle
Mass (kg)
RCS (m²)

Purposes: comms

External: N2YO · Heavens-Above · Gunter

§ Orbital elements

Epoch: 2026-09-19T16:36:14.401440Z

Period
100.40 min
Inclination
86.4009°
Eccentricity
0.0002092
Mean motion
14.34217836 rev/d
Perigee alt
776.2 km
Apogee alt
779.2 km
Semi-major
7,155.8 km
B*
2.8589e-5
RAAN
17.2249°
Arg perigee
94.5070°
Mean anomaly
265.6365°
Rev number
42,694

§ Raw data

IRIDIUM 1661 43570U 18061B   26262.69183335  .00000100  00000+0  28589-4 0  99972 43570  86.4009  17.2249 0002092  94.5070 265.6365 14.34217836426948

JSON: /api/v1/satellites/43570 · /tle

For live sub-satellite position, see the globe view (requires WebGL).

§ Visibility from observer

Set your observer location to see the next 7 days of passes ≥ 10°. The values pass through the URL so the page stays shareable.

No JS? Fill the form by hand. The geolocation button needs JavaScript.